1485853201.07,25673,10.13,73224.8,0.89,-25.35,-30.23,0,*4A
1485853202.29,25674,10.13,73224.5,0.87,-25.23,-29.95,0,*41
1485853203.49,25675,10.13,73226.5,0.89,-25.49,-30.27,0,*43
1485853204.69,25676,10.13,73224.0,0.89,-25.19,-29.95,0,*44
1485853205.96,25677,10.13,73226.8,0.91,-25.29,-30.05,0,*4E
1485853207.21,25678,10.13,73224.0,0.91,-25.35,-30.05,0,*4C
1485853208.49,25679,10.13,73224.3,0.91,-25.45,-30.17,0,*49
1485853209.73,25680,10.13,73224.5,0.93,-25.49,-30.17,0,*41
1485853210.93,25681,10.13,73222.5,0.93,-25.61,-30.33,0,*4C
1485853212.19,25682,10.13,73226.5,0.93,-25.29,-29.89,0,*4A
1485853213.42,25683,10.13,73224.5,0.91,-25.61,-30.33,0,*4C
1485853214.68,25684,10.13,73220.5,0.91,-25.49,-30.17,0,*47
1485853215.91,25685,10.13,73220.8,0.93,-26.45,-31.11,0,*4C
1485853217.15,25686,10.13,73226.8,0.93,-25.61,-30.17,0,*4D
1485853218.37,25687,10.13,73226.3,0.93,-25.35,-29.89,0,*42
1485853219.6,25688,10.13,73224.3,0.99,-25.61,-30.27,0,*4A
1485853220.83,25689,10.13,73226.3,0.97,-25.29,-29.83,0,*4F
1485853222.09,25690,10.13,73226.5,0.99,-25.55,-30.11,0,*41
1485853223.34,25691,10.13,73226.8,0.99,-25.75,-30.27,0,*47
1485853224.6,25692,10.19,73230.5,0.99,-25.75,-30.33,0,*41
1485853225.89,25693,10.13,73226.8,0.99,-26.71,-31.23,0,*47
1485853227.12,25694,10.13,73220.8,0.99,-26.45,-31.01,0,*47
1485853228.37,25695,10.13,73226.3,0.99,-26.55,-31.01,0,*47
1485853229.62,25696,10.13,73226.8,0.99,-26.07,-30.51,0,*47
1485853230.88,25697,10.13,73222.3,0.99,-26.55,-31.01,0,*45
1485853232.1,25698,10.13,73222.3,0.99,-25.61,-29.95,0,*4A
1485853233.34,25699,10.13,73224.5,1.01,-26.07,-30.51,0,*78
1485853234.57,25700,10.13,73220.8,1.01,-26.39,-30.61,0,*77
1485853235.81,25701,10.13,73224.0,0.99,-26.23,-30.67,0,*4B
1485853237.04,25702,10.13,73224.8,1.01,-26.39,-30.61,0,*75
1485853238.25,25703,10.13,73224.5,1.01,-26.23,-30.45,0,*79
1485853239.51,25704,10.13,73224.0,1.03,-26.49,-30.77,0,*71
1485853240.77,25705,10.13,73224.0,1.03,-26.17,-30.45,0,*7A
1485853242.03,25706,10.13,73226.8,1.03,-26.39,-30.61,0,*73
1485853243.23,25707,10.13,73224.0,1.01,-26.23,-30.27,0,*79
1485853244.49,25708,10.19,73226.5,1.03,-26.33,-30.45,0,*71
1485853245.74,25709,10.13,73222.8,1.05,-26.49,-30.77,0,*7A
1485853247.01,25710,10.13,73222.0,1.07,-26.33,-30.27,0,*78
1485853248.26,25711,10.13,73224.8,1.05,-25.97,-30.05,0,*76
1485853249.55,25712,10.13,73228.3,1.07,-26.17,-30.17,0,*7F
1485853250.84,25713,10.13,73224.8,1.07,-26.29,-30.39,0,*7F
1485853252.1,25714,10.13,73224.5,1.07,-26.17,-30.23,0,*7E
1485853253.36,25715,10.13,73226.3,1.07,-26.17,-30.23,0,*7F
1485853254.66,25716,10.13,73224.3,1.07,-26.33,-30.17,0,*7D
1485853255.89,25717,10.19,73228.8,1.11,-26.23,-30.17,0,*7A
1485853257.15,25718,10.13,73224.0,1.09,-26.23,-30.17,0,*7C
1485853258.4,25719,10.13,73226.8,1.11,-26.55,-30.51,0,*77
1485853259.61,25720,10.13,73220.8,1.11,-26.49,-30.45,0,*75
1485853260.86,25721,10.13,73226.8,1.11,-26.65,-30.61,0,*7C
1485853262.09,25722,10.19,73226.8,1.15,-26.29,-30.11,0,*74
1485853263.39,25723,10.19,73224.8,1.13,-26.33,-30.17,0,*7E
1485853264.65,25724,10.13,73226.3,1.13,-25.91,-29.89,0,*7D
1485853265.88,25725,10.13,73220.8,1.15,-25.81,-29.67,0,*7B
1485853267.12,25726,10.13,73224.0,1.17,-25.87,-29.67,0,*7C
1485853268.37,25727,10.13,73222.3,1.17,-26.13,-29.83,0,*79
1485853269.63,25728,10.13,73226.5,1.21,-26.13,-29.83,0,*73
1485853270.86,25729,10.13,73226.8,1.21,-26.07,-29.83,0,*77
1485853272.11,25730,10.13,73224.8,1.21,-25.97,-29.79,0,*70
1485853273.31,25731,10.13,73226.5,1.23,-25.91,-29.61,0,*7C
1485853274.51,25732,10.13,73226.3,1.23,-25.91,-29.61,0,*7F
1485853275.76,25733,10.13,73224.8,1.25,-25.87,-29.39,0,*72
1485853277.04,25734,10.19,73228.5,1.29,-25.97,-29.73,0,*76
1485853278.24,25735,10.19,73230.5,1.27,-26.49,-30.11,0,*75
1485853279.47,25736,10.13,73224.5,1.29,-26.45,-30.11,0,*74
1485853280.69,25737,10.13,73224.0,1.29,-26.61,-30.11,0,*73
1485853281.94,25738,10.13,73224.3,1.29,-26.29,-29.95,0,*74
1485853283.2,25739,10.13,73220.3,1.29,-26.81,-30.27,0,*76
1485853284.43,25740,10.13,73226.0,1.29,-26.65,-30.27,0,*72
1485853285.67,25741,10.13,73224.0,1.31,-26.61,-30.17,0,*7D
1485853286.87,25742,10.19,73226.8,1.31,-26.39,-29.83,0,*76
1485853288.13,25743,10.13,73224.0,1.33,-26.13,-29.67,0,*77
1485853289.41,25744,10.13,73226.8,1.37,-26.33,-29.73,0,*73
1485853290.63,25745,10.13,73224.5,1.35,-26.61,-30.01,0,*7A
1485853291.88,25746,10.19,73228.8,1.37,-26.55,-29.95,0,*79
1485853293.14,25747,10.13,73222.0,1.37,-26.03,-29.51,0,*73
1485853294.36,25748,10.13,73224.0,1.35,-26.71,-30.11,0,*77
1485853295.59,25749,10.13,73224.5,1.39,-26.87,-30.39,0,*79
1485853296.82,25750,10.13,73224.8,1.39,-26.71,-30.11,0,*72
1485853298.08,25751,10.13,73224.5,1.43,-26.61,-29.89,0,*76
1485853299.31,25752,10.13,73224.0,1.45,-26.65,-30.01,0,*7F
1485853300.6,25753,10.13,73226.0,1.43,-26.29,-29.51,0,*7D
1485853301.81,25754,10.13,73226.0,1.45,-26.45,-29.67,0,*73
1485853303.05,25755,10.13,73226.3,1.45,-26.97,-30.33,0,*74
1485853304.26,25756,10.13,73224.8,1.45,-27.07,-30.33,0,*7F
1485853305.53,25757,10.13,73226.8,1.45,-26.93,-30.17,0,*74
1485853306.78,25758,10.13,73226.5,1.47,-26.55,-29.67,0,*7C
1485853308.01,25759,10.13,73228.0,1.45,-26.29,-29.61,0,*72
1485853309.27,25760,10.13,73226.8,1.49,-26.33,-29.39,0,*72
1485853310.53,25761,10.19,73230.0,1.49,-26.77,-30.01,0,*70
1485853311.75,25762,10.13,73226.0,1.49,-27.51,-30.51,0,*73
1485853313.03,25763,10.13,73226.0,1.51,-27.35,-30.55,0,*7D
1485853314.26,25764,10.13,73224.3,1.49,-26.71,-29.67,0,*7B
1485853315.49,25765,10.13,73224.0,1.51,-26.65,-29.61,0,*70
1485853316.69,25766,10.13,73224.3,1.53,-26.45,-29.45,0,*75
1485853317.94,25767,10.13,73226.3,1.53,-27.23,-30.39,0,*76
1485853319.19,25768,10.13,73226.5,1.55,-27.67,-30.67,0,*74
1485853320.45,25769,10.19,73230.0,1.55,-26.81,-29.67,0,*74
1485853321.73,25770,10.13,73226.3,1.55,-27.23,-30.17,0,*7A
1485853322.99,25771,10.19,73228.5,1.57,-27.39,-30.61,0,*73
1485853324.22,25772,10.13,73226.3,1.55,-27.93,-31.05,0,*71
1485853325.46,25773,10.13,73222.5,1.57,-27.93,-30.89,0,*77
1485853326.68,25774,10.13,73224.0,1.57,-26.93,-29.95,0,*74
1485853327.91,25775,10.19,73230.0,1.57,-27.45,-30.45,0,*7A
1485853329.17,25776,10.13,73226.5,1.57,-28.25,-31.23,0,*71
1485853330.4,25777,10.13,73224.5,1.57,-28.21,-31.05,0,*70
1485853331.63,25778,10.13,73224.5,1.57,-28.21,-31.01,0,*7B
1485853332.86,25779,10.19,73226.8,1.57,-28.37,-31.23,0,*7D
1485853334.09,25780,10.13,73226.0,1.59,-27.93,-31.01,0,*74
1485853335.32,25781,10.13,73226.3,1.57,-27.89,-30.73,0,*74
1485853336.55,25782,10.13,73226.0,1.57,-28.25,-31.01,0,*7A
1485853337.76,25783,10.19,73226.5,1.61,-27.67,-30.45,0,*76
1485853338.99,25784,10.13,73224.3,1.57,-27.61,-30.33,0,*73
1485853340.25,25785,10.19,73224.5,1.59,-27.71,-30.51,0,*79
1485853341.51,25786,10.19,73226.8,1.59,-27.77,-30.61,0,*7F
1485853342.8,25787,10.19,73226.3,1.59,-28.05,-30.73,0,*77
1485853344.0,25788,10.19,73228.3,1.61,-28.31,-31.01,0,*70
1485853345.21,25789,10.13,73222.5,1.61,-28.53,-31.17,0,*72
1485853346.42,25790,10.13,73222.0,1.61,-28.53,-31.17,0,*7A
1485853347.68,25791,10.13,73226.0,1.59,-28.47,-31.17,0,*75
1485853348.96,25792,10.19,73224.8,1.59,-28.63,-31.39,0,*7C
1485853350.22,25793,10.13,73224.8,1.59,-28.09,-30.83,0,*71
1485853351.48,25794,10.13,73224.0,1.59,-27.89,-30.51,0,*7E
1485853352.7,25795,10.13,73226.0,1.61,-28.47,-31.17,0,*7A
1485853353.91,25796,10.13,73226.8,1.61,-28.15,-30.67,0,*78
1485853355.16,25797,10.13,73224.3,1.65,-28.09,-30.55,0,*71
1485853356.42,25798,10.13,73226.0,1.61,-28.05,-30.61,0,*71
1485853357.65,25799,10.13,73224.5,1.65,-28.37,-30.95,0,*7E
1485853358.85,25800,10.19,73226.3,1.65,-28.31,-30.83,0,*70
1485853360.07,25801,10.13,73226.0,1.65,-27.83,-30.33,0,*7C
1485853361.3,25802,10.19,73226.5,1.65,-28.53,-31.11,0,*7C
1485853362.52,25803,10.13,73224.8,1.65,-28.31,-30.55,0,*78
1485853363.74,25804,10.13,73222.3,1.65,-27.83,-30.33,0,*79
1485853364.99,25805,10.13,73224.5,1.67,-27.93,-30.39,0,*71
1485853366.24,25806,10.13,73224.5,1.67,-28.09,-30.33,0,*74
1485853367.52,25807,10.13,73228.0,1.71,-28.21,-30.55,0,*78
1485853368.72,25808,10.19,73230.0,1.69,-27.71,-30.11,0,*74
1485853369.95,25809,10.13,73226.8,1.69,-28.05,-30.33,0,*79
1485853371.16,25810,10.13,73228.8,1.69,-28.31,-30.67,0,*77
1485853372.42,25811,10.13,73226.5,1.73,-28.25,-30.83,0,*72
1485853373.68,25812,10.13,73224.0,1.73,-28.43,-30.67,0,*7B
1485853374.93,25813,10.19,73230.8,1.73,-28.43,-30.67,0,*7A
1485853376.18,25814,10.13,73222.8,1.73,-27.99,-30.27,0,*71
1485853377.44,25815,10.13,73226.0,1.73,-28.37,-30.61,0,*79
1485853378.7,25816,10.13,73226.3,1.73,-28.43,-30.67,0,*7F
1485853379.97,25817,10.19,73226.8,1.73,-28.43,-30.95,0,*73
1485853381.22,25818,10.13,73228.0,1.73,-28.69,-30.95,0,*74
1485853382.45,25819,10.13,73226.8,1.75,-28.05,-30.23,0,*74
1485853383.69,25820,10.13,73224.8,1.75,-28.59,-30.83,0,*7D
1485853384.95,25821,10.13,73224.8,1.77,-28.15,-30.39,0,*77
1485853386.23,25822,10.19,73228.8,1.77,-27.99,-30.17,0,*73
1485853387.49,25823,10.19,73224.5,1.77,-27.93,-30.05,0,*7B
1485853388.75,25824,10.13,73226.8,1.77,-27.93,-30.01,0,*78
1485853389.96,25825,10.19,73226.8,1.79,-28.31,-30.33,0,*71
1485853391.21,25826,10.19,73224.8,1.81,-28.91,-31.05,0,*7B
1485853392.47,25827,10.13,73226.3,1.79,-29.01,-31.11,0,*70
1485853393.7,25828,10.19,73230.3,1.79,-28.85,-30.95,0,*7F
1485853394.96,25829,10.19,73228.8,1.81,-28.75,-30.83,0,*71
1485853396.21,25830,10.13,73224.5,1.81,-28.79,-31.01,0,*7E
1485853397.46,25831,10.19,73226.8,1.81,-29.13,-31.17,0,*75
1485853398.74,25832,10.19,73226.8,1.81,-28.59,-30.51,0,*7A
1485853399.97,25833,10.19,73230.3,1.83,-28.25,-30.27,0,*73
1485853401.18,25834,10.13,73226.0,1.83,-28.69,-30.67,0,*78
1485853402.44,25835,10.13,73226.8,1.83,-28.59,-30.61,0,*7C
1485853403.67,25836,10.13,73224.8,1.85,-29.07,-31.01,0,*74
1485853404.9,25837,10.13,73224.8,1.83,-29.23,-31.11,0,*74
1485853406.15,25838,10.13,73226.8,1.85,-28.43,-30.27,0,*7E
1485853407.38,25839,10.19,73228.8,1.85,-28.37,-30.33,0,*79
1485853408.63,25840,10.13,73226.3,1.85,-29.29,-31.33,0,*78
1485853409.9,25841,10.13,73228.0,1.85,-29.29,-31.11,0,*79
1485853411.18,25842,10.13,73224.3,1.85,-29.01,-30.95,0,*7D
1485853412.44,25843,10.19,73228.8,1.85,-29.39,-31.33,0,*7A
1485853413.66,25844,10.13,73224.0,1.85,-29.07,-31.01,0,*71
1485853414.89,25845,10.19,73226.5,1.85,-29.45,-31.33,0,*77
1485853416.15,25846,10.13,73226.0,1.85,-29.57,-31.39,0,*7D
1485853417.4,25847,10.13,73226.0,1.85,-29.57,-31.39,0,*7C
1485853418.64,25848,10.13,73224.0,1.85,-29.45,-31.29,0,*71
1485853419.86,25849,10.19,73228.5,1.85,-29.79,-31.67,0,*75
1485853421.08,25850,10.19,73228.8,1.85,-29.79,-31.67,0,*7D
1485853422.33,25851,10.19,73228.3,1.83,-29.73,-31.73,0,*75
1485853423.57,25852,10.19,73226.3,1.85,-29.61,-31.57,0,*75
1485853424.82,25853,10.19,73228.3,1.85,-29.73,-31.67,0,*74
1485853426.04,25854,10.13,73226.0,1.83,-29.61,-31.57,0,*75
1485853427.29,25855,10.13,73224.8,1.85,-29.29,-31.01,0,*7D
1485853428.53,25856,10.19,73224.3,1.85,-29.57,-31.29,0,*7D
1485853429.77,25857,10.19,73226.3,1.85,-29.79,-31.57,0,*79
1485853431.03,25858,10.13,73224.0,1.85,-29.39,-31.01,0,*71
1485853432.28,25859,10.19,73228.3,1.85,-29.61,-31.39,0,*76
1485853433.53,25860,10.19,73226.3,1.85,-29.61,-31.57,0,*74
1485853434.76,25861,10.19,73226.5,1.85,-29.61,-31.33,0,*77
1485853436.03,25862,10.13,73224.0,1.85,-29.89,-31.73,0,*76
1485853437.28,25863,10.13,73226.5,1.85,-30.11,-31.85,0,*77
1485853438.51,25864,10.13,73224.3,1.85,-29.95,-31.67,0,*78
1485853439.74,25865,10.19,73228.8,1.85,-29.61,-31.29,0,*78
1485853440.97,25866,10.13,73226.8,1.85,-29.57,-31.17,0,*73
1485853442.21,25867,10.19,73228.3,1.85,-29.57,-31.17,0,*72
1485853443.43,25868,10.19,73224.8,1.85,-29.95,-31.67,0,*74
1485853444.67,25869,10.13,73224.5,1.89,-30.01,-31.67,0,*7C
1485853445.92,25870,10.19,73228.5,1.89,-30.17,-31.79,0,*7C
1485853447.21,25871,10.19,73228.0,1.89,-29.89,-31.51,0,*78
1485853448.45,25872,10.19,73224.3,1.89,-30.17,-31.67,0,*71
1485853449.7,25873,10.19,73226.5,1.85,-29.95,-31.57,0,*7D
1485853450.93,25874,10.13,73224.0,1.89,-29.57,-31.05,0,*7F
1485853452.18,25875,10.13,73226.3,1.89,-30.05,-31.67,0,*75
1485853453.43,25876,10.19,73230.0,1.85,-29.89,-31.33,0,*77
1485853454.68,25877,10.19,73224.3,1.89,-30.17,-31.79,0,*7B
1485853455.95,25878,10.19,73228.5,1.89,-30.61,-32.29,0,*73
1485853457.22,25879,10.13,73224.0,1.89,-30.77,-32.29,0,*75
1485853458.47,25880,10.13,73226.8,1.85,-29.95,-31.57,0,*71
1485853459.69,25881,10.19,73226.5,1.85,-30.11,-31.67,0,*77
1485853460.94,25882,10.19,73228.8,1.85,-30.77,-32.35,0,*70
1485853462.18,25883,10.19,73224.8,1.85,-30.45,-32.07,0,*71
1485853463.43,25884,10.19,73230.3,1.85,-30.33,-31.85,0,*7E
1485853464.65,25885,10.19,73226.5,1.85,-29.79,-31.33,0,*74
1485853465.91,25886,10.19,73226.3,1.85,-30.27,-31.91,0,*7C
1485853467.13,25887,10.19,73224.0,1.83,-30.27,-31.73,0,*77
1485853468.37,25888,10.19,73228.5,1.85,-30.23,-31.73,0,*7A
1485853469.63,25889,10.19,73224.0,1.85,-29.57,-30.95,0,*79
1485853470.84,25890,10.19,73224.8,1.85,-30.45,-32.01,0,*75
1485853472.12,25891,10.19,73226.0,1.85,-30.51,-32.07,0,*77
1485853473.34,25892,10.19,73226.3,1.83,-30.77,-32.23,0,*70
1485853474.56,25893,10.19,73226.8,1.83,-30.33,-31.73,0,*77
1485853475.81,25894,10.19,73230.0,1.85,-30.23,-31.57,0,*71
1485853477.05,25895,10.19,73230.3,1.85,-30.33,-31.85,0,*7E
1485853478.28,25896,10.19,73230.5,1.83,-30.67,-32.07,0,*73
1485853479.54,25897,10.19,73228.8,1.85,-30.27,-31.39,0,*7E
1485853480.76,25898,10.19,73230.3,1.85,-30.23,-31.33,0,*7F
1485853482.0,25899,10.19,73230.0,1.85,-30.11,-31.57,0,*7D
1485853483.25,25900,10.19,73228.8,1.85,-30.83,-32.19,0,*7E
1485853484.53,25901,10.19,73230.3,1.85,-30.61,-31.91,0,*70
1485853485.78,25902,10.19,73228.5,1.83,-30.77,-32.19,0,*71
1485853487.03,25903,10.19,73230.5,1.83,-30.51,-31.91,0,*77
1485853488.25,25904,10.19,73230.3,1.83,-30.61,-32.01,0,*79
1485853489.45,25905,10.19,73224.3,1.83,-30.27,-31.67,0,*79
1485853490.69,25906,10.13,73226.0,1.85,-30.33,-31.85,0,*75
1485853491.97,25907,10.19,73224.0,1.85,-30.77,-32.07,0,*7D
1485853493.25,25908,10.19,73226.5,1.85,-30.77,-32.07,0,*72
1485853494.52,25909,10.13,73224.8,1.85,-30.51,-31.91,0,*7B
1485853495.76,25910,10.19,73228.0,1.85,-30.33,-31.57,0,*7D
1485853497.0,25911,10.19,73228.5,1.83,-30.83,-32.19,0,*78
1485853498.22,25912,10.13,73224.0,1.85,-30.67,-32.01,0,*7E
1485853499.49,25913,10.19,73224.8,1.85,-30.51,-31.85,0,*75
1485853500.74,25914,10.19,73226.8,1.89,-30.17,-31.29,0,*7A
1485853502.01,25915,10.19,73226.5,1.85,-30.51,-31.85,0,*73
1485853503.26,25916,10.19,73228.0,1.85,-30.33,-31.39,0,*73
1485853504.49,25917,10.19,73224.3,1.85,-30.27,-31.33,0,*7D
1485853505.72,25918,10.19,73228.8,1.83,-29.89,-31.01,0,*79
1485853506.99,25919,10.19,73230.5,1.89,-30.05,-31.11,0,*7F
1485853508.27,25920,10.19,73228.3,1.89,-30.17,-31.23,0,*77
1485853509.49,25921,10.19,73230.3,1.89,-30.23,-31.33,0,*70
1485853510.77,25922,10.13,73226.3,1.89,-30.01,-31.23,0,*72
1485853512.02,25923,10.19,73230.0,1.91,-30.05,-31.23,0,*7E
1485853513.28,25924,10.19,73228.3,1.89,-30.27,-31.51,0,*75
1485853514.48,25925,10.19,73226.0,1.91,-30.27,-31.29,0,*72
1485853515.75,25926,10.19,73226.0,1.89,-30.39,-31.51,0,*78
1485853516.97,25927,10.19,73230.8,1.91,-30.39,-31.67,0,*75
1485853518.18,25928,10.13,73226.0,1.91,-30.27,-31.33,0,*74
1485853519.37,25929,10.19,73226.5,1.91,-30.45,-31.67,0,*70
1485853520.63,25930,10.19,73228.8,1.91,-30.17,-31.11,0,*7E
1485853521.85,25931,10.19,73226.8,1.91,-30.05,-31.05,0,*79
1485853523.08,25932,10.19,73224.5,1.93,-30.33,-31.45,0,*79
1485853524.37,25933,10.19,73226.8,1.93,-29.51,-30.55,0,*74
1485853525.63,25934,10.19,73226.0,1.95,-29.51,-30.51,0,*71
1485853526.9,25935,10.19,73224.5,1.93,-29.35,-30.33,0,*70
1485853528.13,25936,10.19,73224.0,1.95,-29.35,-30.23,0,*74
1485853529.36,25937,10.19,73230.3,1.95,-29.79,-30.73,0,*78
1485853530.59,25938,10.19,73228.0,1.95,-30.17,-31.05,0,*77
1485853531.84,25939,10.19,73228.3,1.97,-30.11,-31.11,0,*77
1485853533.09,25940,10.19,73228.3,1.97,-29.95,-30.95,0,*70
1485853534.35,25941,10.19,73224.8,1.99,-29.51,-30.39,0,*71
1485853535.62,25942,10.19,73230.3,1.97,-30.05,-30.95,0,*73
1485853536.86,25943,10.19,73226.3,1.99,-29.83,-30.77,0,*76
1485853538.08,25944,10.13,73220.0,1.99,-30.61,-31.67,0,*75
1485853539.36,25945,10.19,73226.5,1.97,-31.11,-32.07,0,*79
1485853540.61,25946,10.13,73226.3,2.01,-30.23,-31.11,0,*72
1485853541.86,25947,10.19,73224.5,1.99,-30.55,-31.61,0,*77
1485853543.11,25948,10.19,73226.5,1.97,-30.11,-31.11,0,*71
1485853544.36,25949,10.19,73230.8,1.99,-29.73,-30.89,0,*72
1485853545.61,25950,10.19,73230.0,2.01,-30.45,-31.51,0,*71
1485853546.81,25951,10.19,73230.8,1.99,-30.23,-31.17,0,*70
1485853548.06,25952,10.13,73224.3,2.01,-30.45,-31.11,0,*77
1485853549.29,25953,10.19,73228.3,2.01,-30.45,-31.45,0,*77
1485853550.57,25954,10.19,73228.3,2.01,-30.05,-30.89,0,*75
1485853551.8,25955,10.19,73230.8,2.03,-29.79,-30.55,0,*74
1485853553.07,25956,10.19,73228.0,2.01,-30.55,-31.61,0,*75
1485853554.29,25957,10.19,73228.0,2.01,-30.45,-31.33,0,*72
1485853555.54,25958,10.19,73228.3,2.01,-30.27,-31.11,0,*79
1485853556.8,25959,10.19,73232.0,2.01,-29.35,-30.23,0,*73
1485853558.06,25960,10.19,73230.0,2.03,-29.13,-30.01,0,*7F
1485853559.29,25961,10.19,73234.3,2.03,-29.79,-30.51,0,*77
1485853560.51,25962,10.19,73228.5,2.03,-30.05,-31.05,0,*77
1485853561.8,25963,10.19,73230.3,2.05,-30.17,-31.11,0,*76
1485853563.03,25964,10.19,73230.0,2.07,-29.95,-30.77,0,*70
1485853564.27,25965,10.19,73228.0,2.07,-29.95,-30.77,0,*71
1485853565.5,25966,10.19,73230.8,2.05,-30.23,-31.05,0,*71
1485853566.75,25967,10.19,73226.8,2.05,-29.67,-30.51,0,*78
1485853567.96,25968,10.19,73230.3,2.07,-29.57,-30.45,0,*73
1485853569.21,25969,10.19,73226.5,2.07,-29.13,-30.01,0,*72
1485853570.47,25970,10.19,73228.5,2.07,-29.73,-30.61,0,*7A
1485853571.69,25971,10.19,73228.5,2.07,-29.95,-30.95,0,*78
1485853572.95,25972,10.19,73230.3,2.11,-30.05,-30.89,0,*70
1485853574.19,25973,10.19,73226.3,2.11,-29.83,-30.61,0,*71
1485853575.48,25974,10.19,73228.0,2.13,-29.89,-30.73,0,*7D
1485853576.77,25975,10.19,73224.8,2.13,-29.89,-30.89,0,*79
1485853578.03,25976,10.19,73228.3,2.13,-29.57,-30.55,0,*78
1485853579.26,25977,10.19,73228.8,2.13,-29.23,-29.95,0,*7E
1485853580.54,25978,10.19,73230.5,2.13,-29.73,-30.61,0,*77
1485853581.75,25979,10.19,73230.3,2.15,-29.79,-30.67,0,*7C
1485853583.02,25980,10.19,73230.3,2.17,-29.89,-30.83,0,*7D
1485853584.27,25981,10.19,73228.0,2.17,-29.79,-30.55,0,*78
1485853585.51,25982,10.19,73230.0,2.15,-29.51,-30.33,0,*73
1485853586.78,25983,10.19,73224.0,2.17,-30.01,-30.95,0,*71
1485853588.07,25984,10.19,73230.3,2.17,-30.95,-31.95,0,*7A
1485853589.31,25985,10.19,73224.3,2.15,-30.39,-31.39,0,*79
1485853590.56,25986,10.19,73228.8,2.15,-30.01,-31.11,0,*7B
1485853591.85,25987,10.19,73226.3,2.17,-29.89,-30.73,0,*75
1485853593.13,25988,10.19,73230.3,2.17,-30.05,-30.95,0,*7E
1485853594.39,25989,10.19,73230.5,2.17,-29.89,-30.83,0,*74
1485853595.61,25990,10.19,73230.8,2.19,-29.83,-30.67,0,*72
1485853596.86,25991,10.19,73226.8,2.19,-29.29,-30.17,0,*74
1485853598.13,25992,10.19,73228.8,2.21,-29.79,-30.77,0,*7F
1485853599.36,25993,10.19,73230.3,2.19,-29.79,-30.51,0,*71
1485853600.59,25994,10.19,73228.3,2.19,-30.17,-31.05,0,*76
1485853601.85,25995,10.19,73228.3,2.21,-29.79,-30.61,0,*7F
1485853603.12,25996,10.19,73230.3,2.21,-29.95,-30.77,0,*79
1485853604.37,25997,10.19,73228.3,2.21,-30.39,-31.33,0,*77
1485853605.59,25998,10.19,73224.5,2.19,-31.05,-31.91,0,*75
1485853606.81,25999,10.19,73228.0,2.21,-31.01,-32.01,0,*71
1485853608.07,26000,10.19,73226.8,2.21,-30.61,-31.45,0,*7F
1485853609.27,26001,10.19,73226.8,2.19,-31.05,-32.01,0,*75
1485853610.52,26002,10.19,73224.0,2.19,-31.91,-32.79,0,*74
1485853611.78,26003,10.19,73228.0,2.19,-31.85,-32.75,0,*7C
1485853613.03,26004,10.19,73230.0,2.17,-30.83,-31.73,0,*77
1485853614.28,26005,10.19,73228.0,2.17,-30.89,-31.79,0,*76
1485853615.54,26006,10.19,73226.3,2.17,-31.29,-32.19,0,*7B
1485853616.77,26007,10.19,73224.5,2.15,-30.95,-31.79,0,*7B
1485853618.02,26008,10.19,73222.8,2.17,-30.23,-31.11,0,*75
1485853619.27,26009,10.19,73224.0,2.17,-30.23,-31.11,0,*74
1485853620.52,26010,10.19,73224.8,2.17,-30.55,-31.45,0,*7C
1485853621.78,26011,10.19,73228.3,2.17,-31.29,-32.19,0,*7D
1485853623.03,26012,10.19,73228.8,2.17,-30.83,-31.57,0,*76
1485853624.3,26013,10.19,73226.3,2.17,-30.51,-31.39,0,*70
1485853625.57,26014,10.19,73226.8,2.17,-31.73,-32.51,0,*7B
1485853626.83,26015,10.19,73230.3,2.15,-31.23,-32.07,0,*7E
1485853628.12,26016,10.19,73228.8,2.17,-29.89,-30.73,0,*77
1485853629.39,26017,10.19,73230.0,2.17,-30.51,-31.11,0,*7E
1485853630.65,26018,10.19,73228.5,2.17,-31.05,-32.07,0,*75
1485853631.9,26019,10.19,73228.8,2.17,-31.79,-32.63,0,*7D
1485853633.13,26020,10.19,73230.3,2.15,-31.73,-32.51,0,*7E
1485853634.37,26021,10.19,73230.3,2.15,-30.73,-31.45,0,*78
1485853635.6,26022,10.19,73228.0,2.15,-30.05,-30.83,0,*71
1485853636.84,26023,10.19,73228.8,2.17,-30.39,-31.29,0,*7C
1485853638.13,26024,10.19,73230.3,2.17,-31.11,-31.95,0,*77
1485853639.41,26025,10.19,73230.0,2.17,-31.73,-32.45,0,*7C
1485853640.67,26026,10.19,73228.5,2.17,-30.83,-31.61,0,*74
1485853641.92,26027,10.19,73226.8,2.15,-30.39,-31.23,0,*70
1485853643.15,26028,10.19,73230.5,2.15,-30.23,-30.89,0,*75
1485853644.42,26029,10.19,73230.8,2.17,-30.89,-31.73,0,*72
1485853645.67,26030,10.19,73232.3,2.17,-30.55,-31.45,0,*7E
1485853646.93,26031,10.19,73230.3,2.17,-30.83,-31.61,0,*72
1485853648.17,26032,10.19,73224.0,2.17,-30.67,-31.45,0,*7D
1485853649.45,26033,10.19,73230.3,2.17,-31.23,-32.07,0,*78
1485853650.74,26034,10.19,73228.3,2.17,-31.11,-31.95,0,*76
1485853652.02,26035,10.19,73230.8,2.17,-31.95,-32.79,0,*7A
1485853653.25,26036,10.19,73224.3,2.15,-31.45,-32.29,0,*73
1485853654.51,26037,10.19,73224.0,2.17,-31.11,-32.13,0,*78
1485853655.73,26038,10.19,73228.5,2.15,-31.57,-32.35,0,*73
1485853656.99,26039,10.19,73230.3,2.15,-30.89,-31.61,0,*72
1485853658.21,26040,10.19,73230.3,2.15,-31.05,-32.07,0,*7A
1485853659.42,26041,10.19,73230.3,2.15,-31.45,-32.35,0,*7E
1485853660.68,26042,10.19,73230.0,2.13,-31.85,-32.51,0,*75
1485853661.94,26043,10.19,73230.0,2.11,-31.95,-32.85,0,*7E
1485853663.19,26044,10.19,73230.3,2.13,-32.51,-33.49,0,*71
1485853664.44,26045,10.19,73228.3,2.13,-30.89,-31.67,0,*79
1485853665.65,26046,10.19,73230.0,2.11,-31.67,-32.51,0,*7F
1485853666.85,26047,10.19,73230.3,2.11,-31.17,-32.13,0,*7F
1485853668.08,26048,10.19,73228.5,2.11,-30.95,-31.79,0,*74
1485853669.3,26049,10.19,73228.8,2.11,-31.01,-31.85,0,*7A
1485853670.51,26050,10.19,73232.8,2.11,-31.67,-32.51,0,*78
1485853671.74,26051,10.19,73230.0,2.11,-31.29,-32.19,0,*7F
1485853672.94,26052,10.19,73230.3,2.11,-31.17,-32.01,0,*78
1485853674.15,26053,10.19,73234.8,2.11,-31.17,-32.01,0,*79
1485853675.4,26054,10.19,73226.8,2.07,-31.85,-32.79,0,*7D
1485853676.62,26055,10.19,73228.5,2.07,-31.73,-32.57,0,*79
1485853677.84,26056,10.19,73234.5,2.07,-31.67,-32.45,0,*7C
1485853679.04,26057,10.19,73228.0,2.07,-31.01,-32.01,0,*7D
1485853680.29,26058,10.19,73230.0,2.11,-30.61,-31.61,0,*77
1485853681.52,26059,10.19,73230.3,2.11,-31.51,-32.39,0,*7A
1485853682.78,26060,10.19,73228.0,2.11,-31.11,-31.85,0,*70
1485853684.0,26061,10.19,73228.8,2.11,-30.39,-31.17,0,*71
1485853685.28,26062,10.19,73230.0,2.13,-30.89,-31.61,0,*7A
1485853686.52,26063,10.19,73228.8,2.11,-30.73,-31.45,0,*7A
1485853687.75,26064,10.19,73230.0,2.11,-30.55,-31.45,0,*79
1485853688.97,26065,10.19,73232.0,2.11,-30.73,-31.33,0,*7D
1485853690.2,26066,10.19,73232.5,2.15,-30.51,-31.29,0,*71
1485853691.4,26067,10.19,73230.5,2.15,-32.13,-33.03,0,*7E
1485853692.62,26068,10.19,73230.3,2.13,-31.79,-32.57,0,*78
1485853693.83,26069,10.19,73228.8,2.11,-31.45,-32.23,0,*77
1485853695.08,26070,10.19,73228.5,2.13,-31.51,-32.57,0,*7B
1485853696.32,26071,10.19,73228.3,2.11,-32.01,-32.75,0,*7E
1485853697.52,26072,10.19,73230.5,2.11,-31.79,-32.57,0,*71
1485853698.75,26073,10.19,73232.0,2.11,-31.33,-32.19,0,*74
1485853699.98,26074,10.19,73232.0,2.11,-31.29,-32.19,0,*78
1485853701.21,26075,10.19,73230.8,2.11,-31.85,-32.57,0,*75
1485853702.44,26076,10.19,73230.8,2.07,-32.01,-32.79,0,*72
1485853703.64,26077,10.19,73230.3,2.07,-30.83,-31.67,0,*77
1485853704.85,26078,10.19,73228.0,2.07,-31.01,-31.73,0,*76
1485853706.08,26079,10.19,73228.3,2.07,-30.45,-31.23,0,*73